2023/02/24 00:00:00,90.9, 1.1
2023/02/24 00:10:00,90.9, 1.0
2023/02/24 00:20:00,90.9, 1.2
2023/02/24 00:30:00,90.9, 1.1
2023/02/24 00:40:00,90.9, 1.1
2023/02/24 00:50:00,90.9, 1.3
2023/02/24 01:00:00,90.9, 1.2
2023/02/24 01:10:00,90.9, 1.2
2023/02/24 01:20:00,90.8, 1.3
2023/02/24 01:30:00,90.8, 1.4
2023/02/24 01:40:00,90.7, 1.1
2023/02/24 01:50:00,90.8, 1.2
2023/02/24 02:00:00,90.7, 0.8
2023/02/24 02:10:00,90.7, 1.1
2023/02/24 02:20:00,90.7, 1.1
2023/02/24 02:30:00,90.6, 1.3
2023/02/24 02:40:00,90.6, 1.0
2023/02/24 02:50:00,90.5, 1.2
2023/02/24 03:00:00,90.5, 1.1
2023/02/24 03:10:00,90.6, 1.1
2023/02/24 03:20:00,90.6, 1.2
2023/02/24 03:30:00,90.6, 1.1
2023/02/24 03:40:00,90.6, 1.1
2023/02/24 03:50:00,90.6, 1.1
2023/02/24 04:00:00,90.5, 1.2
2023/02/24 04:10:00,90.4, 1.1
2023/02/24 04:20:00,90.4, 1.1
2023/02/24 04:30:00,90.4, 0.9
2023/02/24 04:40:00,90.4, 1.0
2023/02/24 04:50:00,90.4, 0.9
2023/02/24 05:00:00,90.4, 1.1
2023/02/24 05:10:00,90.3, 1.0
2023/02/24 05:20:00,90.3, 0.8
2023/02/24 05:30:00,90.3, 1.0
2023/02/24 05:40:00,90.2, 1.0
2023/02/24 05:50:00,90.1, 1.0
2023/02/24 06:00:00,90.1, 0.9
2023/02/24 06:10:00,90.1, 1.0
2023/02/24 06:20:00,90.0, 1.1
2023/02/24 06:30:00,90.0, 1.1
2023/02/24 06:40:00,90.0, 1.0
2023/02/24 06:50:00,90.0, 1.1
2023/02/24 07:00:00,89.9, 1.2
2023/02/24 07:10:00,89.9, 1.3
2023/02/24 07:20:00,90.0, 1.4
2023/02/24 07:30:00,90.0, 1.6
2023/02/24 07:40:00,89.9, 1.7
2023/02/24 07:50:00,89.8, 1.9
2023/02/24 08:00:00,89.7, 2.1
2023/02/24 08:10:00,89.7, 2.3
2023/02/24 08:20:00,89.7, 2.4
2023/02/24 08:30:00,89.7, 2.6
2023/02/24 08:40:00,89.8, 3.5
2023/02/24 08:50:00,89.9, 3.8
2023/02/24 09:00:00,89.7, 3.9
2023/02/24 09:10:00,89.6, 4.4
2023/02/24 09:20:00,89.6, 5.0
2023/02/24 09:30:00,89.5, 5.3
2023/02/24 09:40:00,89.5, 5.4
2023/02/24 09:50:00,89.4, 5.4
2023/02/24 10:00:00,89.4, 5.6
2023/02/24 10:10:00,89.4, 6.5
2023/02/24 10:20:00,89.4, 6.0
2023/02/24 10:30:00,89.4, 5.9
2023/02/24 10:40:00,89.3, 6.1
2023/02/24 10:50:00,89.2, 6.8
2023/02/24 11:00:00,89.0, 6.7
2023/02/24 11:10:00,89.1, 6.8
2023/02/24 11:20:00,89.4, 7.9
2023/02/24 11:30:00,89.0, 8.2
2023/02/24 11:40:00,88.8, 7.7
2023/02/24 11:50:00,88.6, 7.5
2023/02/24 12:00:00,88.8, 6.7
2023/02/24 12:10:00,88.5, 7.0
2023/02/24 12:20:00,88.3, 7.2
2023/02/24 12:30:00,88.2, 8.9
2023/02/24 12:40:00,88.4, 9.9
2023/02/24 12:50:00,88.3, 9.1
2023/02/24 13:00:00,87.8, 9.2
2023/02/24 13:10:00,87.7, 8.8
2023/02/24 13:20:00,87.8, 7.8
2023/02/24 13:30:00,87.9, 6.8
2023/02/24 13:40:00,87.3, 8.4
2023/02/24 13:50:00,87.1, 7.5
2023/02/24 14:00:00,86.9, 7.0
2023/02/24 14:10:00,86.7, 8.5
2023/02/24 14:20:00,86.8, 7.1
2023/02/24 14:30:00,86.6, 5.9
2023/02/24 14:40:00,86.5, 6.9
2023/02/24 14:50:00,86.5, 5.7
2023/02/24 15:00:00,86.4, 5.5
2023/02/24 15:10:00,86.1, 7.0
2023/02/24 15:20:00,86.1, 7.8
2023/02/24 15:30:00,85.8, 5.9
2023/02/24 15:40:00,85.7, 5.0
2023/02/24 15:50:00,85.8, 4.6
2023/02/24 16:00:00,85.6, 4.7
2023/02/24 16:10:00,85.6, 4.0
2023/02/24 16:20:00,85.6, 3.6
2023/02/24 16:30:00,85.4, 3.9
2023/02/24 16:40:00,85.3, 3.5
2023/02/24 16:50:00,85.3, 3.3
2023/02/24 17:00:00,85.1, 2.9
2023/02/24 17:10:00,85.0, 2.8
2023/02/24 17:20:00,84.9, 2.6
2023/02/24 17:30:00,85.0, 2.4
2023/02/24 17:40:00,84.9, 2.2
2023/02/24 17:50:00,84.8, 2.0
2023/02/24 18:00:00,84.9, 1.8
2023/02/24 18:10:00,84.6, 1.8
2023/02/24 18:20:00,84.5, 1.6
2023/02/24 18:30:00,84.4, 1.7
2023/02/24 18:40:00,84.3, 1.5
2023/02/24 18:50:00,84.2, 1.5
2023/02/24 19:00:00,84.3, 1.3
2023/02/24 19:10:00,84.4, 1.2
2023/02/24 19:20:00,84.3, 1.3
2023/02/24 19:30:00,84.4, 1.1
2023/02/24 19:40:00,84.5, 0.8
2023/02/24 19:50:00,84.9, 1.1
2023/02/24 20:00:00,85.4, 0.7
2023/02/24 20:10:00,85.9, 0.6
2023/02/24 20:20:00,85.8,-0.2
2023/02/24 20:30:00,85.8, 1.1
2023/02/24 20:40:00,85.9, 0.7
2023/02/24 20:50:00,85.9, 0.7
2023/02/24 21:00:00,85.8, 0.7
2023/02/24 21:10:00,85.7, 0.7
2023/02/24 21:20:00,85.8, 0.7
2023/02/24 21:30:00,86.0, 0.6
2023/02/24 21:40:00,85.9, 0.7
2023/02/24 21:50:00,85.9, 0.6
2023/02/24 22:00:00,85.8, 0.5
2023/02/24 22:10:00,85.7, 0.6
2023/02/24 22:20:00,85.7, 0.2
2023/02/24 22:30:00,85.6, 0.2
2023/02/24 22:40:00,85.7, 0.2
2023/02/24 22:50:00,85.8, 0.0
2023/02/24 23:00:00,85.8, 0.2
2023/02/24 23:10:00,85.6,-0.3
2023/02/24 23:20:00,85.7,-0.3
2023/02/24 23:30:00,85.7,-0.4
2023/02/24 23:40:00,85.7,-0.4
2023/02/24 23:50:00,85.6,-0.6
